Regional Weather Roundup
Issued by NWS Boston, MA

Home | Current Version | Previous Version | Text Only | Print | Product List | Glossary On
Versions: 1 2 3 4 5 6 7 8 9 10 11 12 13 14 15 16 17 18 19 20 21 22 23 24 25 26 27 28 29 30 31 32 33 34 35 36 37 38 39 40 41 42 43 44 45 46 47 48 49
000
ASUS41 KBOX 250410
RWRBOX

REGIONAL WEATHER ROUNDUP
NATIONAL WEATHER SERVICE TAUNTON MA
1100 PM EST SAT JAN 24 2015

NOTE:  "FAIR" INDICATES FEW OR NO CLOUDS BELOW 12,000 FEET WITH NO
SIGNIFICANT WEATHER AND/OR OBSTRUCTIONS TO VISIBILITY.  THE FOLLOWING
OBSERVATION LOCATIONS DO NOT REPORT PRESENT WEATHER...PROVINCETOWN...
SMITHFIELD...BLOCK ISLAND...KEENE...AND OXFORD.

MAZALL-250500-
EASTERN MASSACHUSETTS

CITY           SKY/WX    TMP DP  RH WIND       PRES   REMARKS
BOSTON         PTCLDY    32  27  81 W10       29.27R WCI  24
BEVERLY        PTCLDY    30  25  81 NW8       29.24R WCI  22
LAWRENCE       PTCLDY    29  25  85 W8        29.27R WCI  21
BEDFORD        PTCLDY    28  25  88 W7        29.27R WCI  21
BLUE HILL        N/A     27  26  96 W17G24    29.24R WCI  14
NORWOOD        PTCLDY    30  26  85 W7        29.29R WCI  23
MARSHFIELD       N/A    N/A N/A N/A MISG        N/A
PLYMOUTH       MOCLDY    30  29  96 W7        29.28R WCI  23
TAUNTON        PTCLDY    31  28  89 W3        29.29R
NEW BEDFORD    PTCLDY    32  30  92 W9        29.29R WCI  24
$$

MAZALL-250500-
CAPE COD AND THE ISLANDS

CITY           SKY/WX    TMP DP  RH WIND       PRES   REMARKS
FALMOUTH       CLOUDY    32  30  93 W9        29.29R WCI  24
HYANNIS        CLOUDY    33  31  92 NW9G20    29.25R WCI  25
CHATHAM        FLURRIES  32  31  96 NW12G21   29.26R WCI  23
PROVINCETOWN   CLOUDY    36  30  80 NW20G26   29.25R WCI  25
NANTUCKET      CLOUDY    34  31  88 NW18G28   29.27R WCI  23
MARTHAS VNYRD  MOCLDY    33  30  88 NW9       29.30R WCI  25
$$

MAZALL-250500-
CENTRAL AND WESTERN MASSACHUSETTS

CITY           SKY/WX    TMP DP  RH WIND       PRES   REMARKS
WORCESTER      MIX PCPN  28  23  81 W21G32    29.26R WCI  15
FITCHBURG      PTCLDY    31  22  69 NW9       29.28R WCI  23
ORANGE         CLOUDY    30  24  78 CALM      29.31R
SPRINGFIELD    CLOUDY    31  24  76 W8        29.35R WCI  23
WESTFIELD      CLOUDY    32  24  72 NW20G28   29.35S WCI  20
NORTH ADAMS    CLOUDY    29  23  78 W15G24    29.35S WCI  18
PITTSFIELD     CLOUDY    26  23  88 W12G22    29.34R WCI  16
$$

RIZALL-250500-
RHODE ISLAND

CITY           SKY/WX    TMP DP  RH WIND       PRES   REMARKS
PROVIDENCE     PTCLDY    33  27  78 W9        29.31R WCI  25
NEWPORT        PTCLDY    33  29  85 W9G17     29.31R WCI  25
BLOCK ISLAND   CLEAR     36  27  69 W12G21    29.34R WCI  27
SMITHFIELD     PTCLDY    30  21  69 W9G18     29.28R WCI  22
WESTERLY       PTCLDY    33  28  81 W7        29.35R WCI  27
$$

CTZALL-250500-
CONNECTICUT

CITY           SKY/WX    TMP DP  RH WIND       PRES   REMARKS
BRADLEY INTL   CLOUDY    32  24  72 NW12G21   29.37R WCI  23
HARTFORD       CLOUDY    32  24  72 VRB6      29.39R WCI  26
BRIDGEPORT     CLEAR     33  29  85 W9        29.42R WCI  25
DANBURY        MOCLDY    32  22  66 W5        29.43R WCI  27
GROTON         PTCLDY    32  26  78 W12       29.36R WCI  23
NEW HAVEN      PTCLDY    34  25  69 NW8       29.40R WCI  27
CHESTER        FAIR      32  27  80 NW10G20   29.37R WCI  24
MERIDEN        MOCLDY    33  22  63 N7        29.40R WCI  27
WILLIMANTIC    CLOUDY    32  24  72 NW14G22   29.35R WCI  22
OXFORD         MOCLDY    30  18  59 NW5       29.39R WCI  25
$$

MEZ002-015-021-024-NHZ003-005-008-011-012-014-VTZ005-008-250500-
NORTHERN NEW ENGLAND

CITY           SKY/WX    TMP DP  RH WIND       PRES   REMARKS
PORTLAND ME    MOCLDY    30  24  78 W8        29.18R WCI  22
BANGOR ME      CLOUDY    27  22  81 NW12      29.09R WCI  17
CONCORD NH     CLOUDY    29  21  72 CALM      29.26R
MANCHESTER NH  MOCLDY    31  22  69 NW6       29.25R WCI  25
NASHUA NH        N/A     30  24  78 CALM      29.28R
PORTSMOUTH NH  MOCLDY    29  24  81 W8        29.21R WCI  21
JAFFREY NH     CLOUDY    29  20  69 W10G16    29.26R WCI  20
KEENE NH       CLOUDY    28  25  86 S3        29.31R
BURLINGTON VT  FLURRIES  30  24  78 W5        29.31F WCI  25
MT. WASHINGTON SNOWSHWR   7   7 100 NW71G78     N/A  VSB 0   WCI -25
$$

NYZ052-076-250500-
EASTERN NEW YORK

CITY           SKY/WX    TMP DP  RH WIND       PRES   REMARKS
ALBANY         CLOUDY    31  24  75 W13       29.41S WCI  21
NEW YORK CITY  CLOUDY    35  25  66 NW15G21   29.48R WCI  25
$$

ANZALL-250500-
MARINE OBSERVATIONS

STATION/POSITION TIME  TEMP    WIND        PRES    VSBY  WAVE
                       AIR SEA DIR/SP/G                  HT/PER
                 (UTC) (F)     (DEG/KT/KT) (MB)    (MI)  (FT/S)
BOSTON BUOY      0350   34 40  290/ 17/ 21  990.3R         7/ 7
BUZZARDS BAY     0300          290/ 18/ 19  991.7R
NANTUCKET SOUND  0350   35 38  300/ 21/ 25  990.4R         3/ 4
MASS BAY-STELLWA 0304   33 42  310/ 16/ 17   N/A    1 7/8  6/ 6
ISLE OF SHOALS   0400   30     280/ 17/ 20  988.5R
S OF BLOCK IS    0308      45                N/A          12/13
$$

......................KEY.........................
  SKY/WX - SKY CONDITION/PRESENT WEATHER
  TMP    - TEMPERATURE IN FAHRENHEIT
  DWPT   - DEWPOINT IN FAHRENHEIT
  RH     - RELATIVE HUMIDITY IN PERCENT
  WIND   - DIRECTION AND SPEED IN MPH
  PRES   - MEAN SEA LEVEL PRESSURE IN INCHES OF HG
  WCI    - WIND CHILL INDEX
  VSB    - VISIBILITY IN MILES
  HX     - HEAT INDEX
  TC     - TEMPERATURE IN CELSIUS
  VRB    - VARIABLE WIND DIRECTION
  N/A    - NOT AVAILABLE


USA.gov is the U.S. government's official web portal to all federal, state and local government web resources and services.